Regional Weather Roundup
Issued by NWS

Home | Current Version | Previous Version | Graphics & Text | Print | Product List | Glossary Off
Versions: 1 2 3 4 5 6 7 8 9 10 11 12 13 14 15 16 17 18 19 20 21 22 23 24 25 26 27 28 29 30 31 32 33 34 35 36 37 38 39 40 41 42 43 44 45 46 47 48 49 50

000
ASUS43 KTOP 270608
RWRKS

WEATHER ROUNDUP FOR KANSAS
NATIONAL WEATHER SERVICE GOODLAND KS
1200 AM CST MON FEB 27 2017

NOTE:  "FAIR" INDICATES FEW OR NO CLOUDS BELOW 12,000 FEET WITH NO
SIGNIFICANT WEATHER AND/OR OBSTRUCTIONS TO VISIBILITY.

KSZ001>006-013>018-027>032-041>047-270700-
NORTHWEST KANSAS

CITY           SKY/WX    TMP DP  RH WIND       PRES   REMARKS
GOODLAND       CLEAR     18   7  62 S10       29.83F WCI   6
6HR MIN TEMP:  16; 6HR MAX TEMP:  42;

HAYS           CLEAR     26   9  48 E3        29.94F
HILL CITY      CLEAR     16   7  67 E3        29.92F
6HR MIN TEMP:  15; 6HR MAX TEMP:  45;

RUSSELL        CLEAR     26   9  48 E9        29.93F
6HR MIN TEMP:  26; 6HR MAX TEMP:  47;

$$

KSZ061>065-074>080-084>089-270700-
SOUTHWEST KANSAS

CITY           SKY/WX    TMP DP  RH WIND       PRES   REMARKS
DODGE CITY     CLEAR     27  17  66 SE6       29.90F
6HR MIN TEMP:  27; 6HR MAX TEMP:  48;

ELKHART          N/A     31   9  40 SE16        N/A  WCI  20
GARDEN CITY    CLEAR     29  15  56 SE9       29.88F
6HR MIN TEMP:  29; 6HR MAX TEMP:  48;

GREAT BEND     PTCLDY    29  20  69 SE7       29.95S
LIBERAL        CLEAR     36  18  48 SE12      29.87S WCI  27
PRATT          CLEAR     32  19  58 E7        29.94F
6HR MIN TEMP:  32; 6HR MAX TEMP:  47;

$$

KSZ066>073-081>083-090>101-270700-
SOUTHEAST KANSAS

CITY           SKY/WX    TMP DP  RH WIND       PRES   REMARKS
CHANUTE        CLEAR     30  28  92 CALM      30.01F FOG
6HR MIN TEMP:  27; 6HR MAX TEMP:  47;

COFFEYVILLE    CLEAR     34  31  88 E7        30.00F
6HR MIN TEMP:  34; 6HR MAX TEMP:  50;

HUTCHINSON     CLEAR     34  24  67 E7        29.96F
6HR MIN TEMP:  31; 6HR MAX TEMP:  49;

MEDICINE LODGE   N/A     36  24  62 E5        29.93F
NEWTON         CLEAR     33  25  72 E8        29.97F
PARSONS        CLEAR     34  31  88 E5        30.01F
6HR MIN TEMP:  34; 6HR MAX TEMP:  48;

WICHITA INTL   CLEAR     36  26  67 E6        29.96F
6HR MIN TEMP:  34; 6HR MAX TEMP:  50;

WICHITA JABRA  CLEAR     32  24  72 E5        29.96F
6HR MIN TEMP:  30; 6HR MAX TEMP:  49;

WICHITA MCCONL CLEAR     39  26  59 SE9       29.95F
WINFIELD       CLEAR     38  30  73 E7        29.98F
6HR MIN TEMP:  38; 6HR MAX TEMP:  50;

$$

KSZ007>012-019>026-033>040-048>060-102>105-270700-
NORTHEAST KANSAS

CITY           SKY/WX    TMP DP  RH WIND       PRES   REMARKS
CONCORDIA      CLEAR     30  15  53 SE5       29.97F
6HR MIN TEMP:  27; 6HR MAX TEMP:  46;

EMPORIA        CLEAR     31  27  85 S5        30.00F
6HR MIN TEMP:  31; 6HR MAX TEMP:  47;

LAWRENCE       PTCLDY    31  31 100 E6        30.03F
6HR MIN TEMP:  28; 6HR MAX TEMP:  48;

MANHATTAN      CLEAR     27  21  78 CALM      30.00F
6HR MIN TEMP:  26; 6HR MAX TEMP:  49;

MARYSVILLE     CLEAR     30  19  64 CALM      30.00S
OLATHE IND     CLEAR     34  32  92 SE7       30.02F
6HR MIN TEMP:  30; 6HR MAX TEMP:  46;

OLATHE EXE     CLEAR     31  31 100 S7        30.02F
6HR MIN TEMP:  31; 6HR MAX TEMP:  45;

SALINA         CLEAR     30  18  60 CALM      29.98F
6HR MIN TEMP:  30; 6HR MAX TEMP:  51;

TOPEKA BILLARD CLEAR     32  29  88 CALM      30.02F
6HR MIN TEMP:  32; 6HR MAX TEMP:  51;

TOPEKA FORBES  CLEAR     30  26  85 CALM      30.01F
6HR MIN TEMP:  29; 6HR MAX TEMP:  50;

$$




USA.gov is the U.S. government's official web portal to all federal, state and local government web resources and services.